Location: Dana
(41.8364°N, 106.7042°W)
Time: 14:53:35
(UTC+00:00)

Tiros 1 despin weight - Pass Details

Date: 17 May 2026
Orbit: 554 x 591 km, 48.2° (Epoch: 6 June)

Event Time Altitude Azimuth Distance (km) Brightness Sun altitude
Rises 17:05:50 0° 295° (WNW) 2,734 ? 56.6°
Reaches altitude 10° 17:08:07 10° 291° (WNW) 1,835 ? 56.9°
Maximum altitude 17:12:12 54° 214° (SW) 673 ? 57.5°
Drops below altitude 10° 17:16:16 10° 137° (SE) 1,826 ? 58.2°
Sets 17:18:32 0° 133° (SE) 2,720 ? 58.5°
